VTI789 VABB-VOBL

Flight info

Callsign VTI789
Flight time 0h 43m
Altitude 39000
Route VEVAK2A EPKOS Q9 RIKBU RIKBU7E
Aircraft A20N/M-SDE2E3FGHIRWXY/LB1

Departure

Time 2026-05-07 17:20
Airport Chhatrapati Shivaji Maharaj International Airport (VABB)

Arrival

Time 2026-05-07 18:03
Airport Kempegowda International Airport Bengaluru (VOBL)
Time Latitude Longitude Altitude Speed Heading
2026-05-07 16:39 19.09458 72.87054 7 ft 0 kts 154°
2026-05-07 16:39 19.09464 72.87051 33 ft 0 kts 154°
2026-05-07 16:40 19.09547 72.87175 33 ft 0 kts 138°
2026-05-07 16:45 19.09552 72.87171 33 ft 0 kts 140°
2026-05-07 16:47 19.09551 72.87175 33 ft 0 kts 139°
2026-05-07 16:47 19.09537 72.87189 33 ft 0 kts 139°
2026-05-07 16:47 19.09542 72.87184 33 ft 0 kts 137°
2026-05-07 17:09 19.09557 72.87170 32 ft 4 kts 138°
2026-05-07 17:09 19.09578 72.87151 34 ft 4 kts 140°
2026-05-07 17:10 19.09599 72.87133 31 ft 4 kts 146°
2026-05-07 17:10 19.09622 72.87120 35 ft 4 kts 174°
2026-05-07 17:10 19.09637 72.87122 34 ft 0 kts 225°
2026-05-07 17:13 19.09629 72.87114 33 ft 4 kts 225°
2026-05-07 17:13 19.09600 72.87082 35 ft 8 kts 224°
2026-05-07 17:13 19.09553 72.87032 35 ft 11 kts 225°
2026-05-07 17:13 19.09495 72.86964 35 ft 14 kts 228°
2026-05-07 17:14 19.09424 72.86883 35 ft 15 kts 216°
2026-05-07 17:14 19.09334 72.86911 33 ft 16 kts 136°
2026-05-07 17:14 19.09249 72.87001 34 ft 18 kts 128°
2026-05-07 17:14 19.09236 72.87121 33 ft 8 kts 89°
2026-05-07 17:15 19.09236 72.87123 33 ft 0 kts 89°
2026-05-07 17:15 19.09236 72.87145 33 ft 7 kts 90°
2026-05-07 17:15 19.09236 72.87160 33 ft 0 kts 89°
2026-05-07 17:17 19.09236 72.87167 33 ft 4 kts 89°
2026-05-07 17:17 19.09234 72.87230 33 ft 12 kts 104°
2026-05-07 17:17 19.09160 72.87262 32 ft 13 kts 178°
2026-05-07 17:18 19.09062 72.87279 33 ft 15 kts 137°
2026-05-07 17:18 19.09053 72.87394 33 ft 18 kts 87°
2026-05-07 17:18 19.09054 72.87533 33 ft 20 kts 90°
2026-05-07 17:18 19.09056 72.87693 31 ft 23 kts 89°
2026-05-07 17:19 19.09009 72.87806 32 ft 15 kts 168°
2026-05-07 17:19 19.08902 72.87804 32 ft 10 kts 195°
2026-05-07 17:19 19.08885 72.87742 32 ft 9 kts 270°
2026-05-07 17:19 19.08884 72.87631 32 ft 41 kts 269°
2026-05-07 17:20 19.08873 72.86996 35 ft 128 kts 269°
2026-05-07 17:20 19.08861 72.85857 372 ft 162 kts 270°
2026-05-07 17:20 19.08854 72.84678 1342 ft 162 kts 268°
2026-05-07 17:20 19.08794 72.83487 2232 ft 160 kts 268°
2026-05-07 17:21 19.08761 72.82257 2752 ft 177 kts 270°
2026-05-07 17:21 19.08760 72.80883 3207 ft 197 kts 271°
2026-05-07 17:21 19.08758 72.79364 3663 ft 217 kts 270°
2026-05-07 17:21 19.08746 72.77676 4073 ft 241 kts 270°
2026-05-07 17:22 19.08723 72.75847 4595 ft 262 kts 270°
2026-05-07 17:22 19.08637 72.73860 5150 ft 278 kts 260°
2026-05-07 17:22 19.07870 72.72000 6047 ft 282 kts 233°
2026-05-07 17:22 19.06371 72.70655 6926 ft 287 kts 207°
2026-05-07 17:23 19.04442 72.70127 7780 ft 291 kts 181°
2026-05-07 17:23 19.02424 72.70457 8074 ft 295 kts 158°
2026-05-07 17:23 19.00691 72.71587 8230 ft 295 kts 140°
2026-05-07 17:23 18.97313 72.73926 8496 ft 296 kts 159°
2026-05-07 17:24 18.93271 72.74679 8741 ft 297 kts 178°
2026-05-07 17:24 18.89134 72.74647 8828 ft 297 kts 182°
2026-05-07 17:24 18.85011 72.74503 8827 ft 297 kts 182°
2026-05-07 17:24 18.80871 72.74378 8829 ft 297 kts 182°
2026-05-07 17:25 18.76750 72.74659 9010 ft 301 kts 166°
2026-05-07 17:25 18.72753 72.76042 10481 ft 312 kts 161°
2026-05-07 17:25 18.68339 72.77562 11286 ft 348 kts 161°
2026-05-07 17:25 18.63711 72.79159 12961 ft 353 kts 161°
2026-05-07 17:26 18.59011 72.80789 14446 ft 359 kts 161°
2026-05-07 17:26 18.54214 72.82454 15747 ft 368 kts 161°
2026-05-07 17:26 18.49273 72.84168 17019 ft 377 kts 162°
2026-05-07 17:26 18.44257 72.85907 18223 ft 385 kts 162°
2026-05-07 17:27 18.39149 72.87675 19108 ft 396 kts 162°
2026-05-07 17:27 18.33847 72.89510 19991 ft 407 kts 162°
2026-05-07 17:27 18.28383 72.91401 20849 ft 418 kts 162°
2026-05-07 17:27 18.22832 72.93320 21678 ft 428 kts 162°
2026-05-07 17:28 18.17105 72.95299 22485 ft 438 kts 162°
2026-05-07 17:28 18.11272 72.97378 23273 ft 448 kts 157°
2026-05-07 17:28 18.05951 73.00804 24049 ft 451 kts 138°
2026-05-07 17:28 18.01293 73.05265 24852 ft 455 kts 136°
2026-05-07 17:29 17.96586 73.09759 25610 ft 459 kts 137°
2026-05-07 17:29 17.91839 73.14286 26368 ft 463 kts 137°
2026-05-07 17:29 17.87055 73.18847 27083 ft 467 kts 137°
2026-05-07 17:29 17.82244 73.23432 27816 ft 470 kts 137°
2026-05-07 17:30 17.77361 73.28081 28505 ft 474 kts 137°
2026-05-07 17:30 17.72456 73.32749 29172 ft 478 kts 138°
2026-05-07 17:30 17.67508 73.37453 29826 ft 482 kts 138°
2026-05-07 17:30 17.62518 73.42193 30417 ft 485 kts 138°
2026-05-07 17:31 17.57494 73.46961 31018 ft 488 kts 138°
2026-05-07 17:31 17.52466 73.51730 31755 ft 487 kts 138°
2026-05-07 17:31 17.47454 73.56480 32530 ft 484 kts 138°
2026-05-07 17:31 17.42468 73.61201 33255 ft 482 kts 138°
2026-05-07 17:32 17.37504 73.65898 33944 ft 480 kts 138°
2026-05-07 17:32 17.32625 73.70512 34524 ft 478 kts 138°
2026-05-07 17:32 17.27639 73.75222 35093 ft 476 kts 138°
2026-05-07 17:32 17.22792 73.79799 35640 ft 474 kts 139°
2026-05-07 17:33 17.17836 73.84474 36203 ft 473 kts 139°
2026-05-07 17:33 17.13026 73.89008 36757 ft 471 kts 139°
2026-05-07 17:33 17.08175 73.93578 37317 ft 469 kts 139°
2026-05-07 17:33 17.03329 73.98140 37846 ft 467 kts 139°
2026-05-07 17:34 16.98517 74.02666 38358 ft 465 kts 139°
2026-05-07 17:34 16.93711 74.07184 38785 ft 463 kts 139°
2026-05-07 17:34 16.88982 74.11742 38934 ft 462 kts 135°
2026-05-07 17:34 16.84868 74.16890 38933 ft 462 kts 129°
2026-05-07 17:35 16.76901 74.27429 38935 ft 461 kts 129°
2026-05-07 17:35 16.68944 74.37921 38939 ft 461 kts 129°
2026-05-07 17:36 16.60981 74.48409 38935 ft 461 kts 129°
2026-05-07 17:36 16.53025 74.58871 38936 ft 461 kts 129°
2026-05-07 17:37 16.45058 74.69329 38935 ft 460 kts 129°
2026-05-07 17:37 16.37090 74.79771 38938 ft 460 kts 129°
2026-05-07 17:38 16.29163 74.90147 38930 ft 460 kts 129°
2026-05-07 17:38 16.21192 75.00564 38930 ft 460 kts 129°
2026-05-07 17:39 16.13212 75.10978 38931 ft 460 kts 129°
2026-05-07 17:39 16.05226 75.21386 38934 ft 460 kts 129°
2026-05-07 17:40 15.97243 75.31774 38929 ft 460 kts 129°
2026-05-07 17:40 15.89245 75.42167 38928 ft 460 kts 129°
2026-05-07 17:41 15.81242 75.52553 38925 ft 460 kts 129°
2026-05-07 17:41 15.73256 75.62901 38926 ft 459 kts 129°
2026-05-07 17:42 15.65254 75.73257 38929 ft 459 kts 129°
2026-05-07 17:42 15.57272 75.83571 38928 ft 458 kts 129°
2026-05-07 17:43 15.49282 75.93883 38924 ft 458 kts 129°
2026-05-07 17:43 15.41346 76.04110 38922 ft 458 kts 129°
2026-05-07 17:44 15.33310 76.14453 38913 ft 458 kts 129°
2026-05-07 17:44 15.25371 76.24655 38908 ft 458 kts 129°
2026-05-07 17:45 15.17104 76.34699 38915 ft 458 kts 137°
2026-05-07 17:45 15.06763 76.42366 38914 ft 457 kts 148°
2026-05-07 17:46 14.95994 76.49429 38918 ft 458 kts 148°
2026-05-07 17:46 14.86265 76.55795 38920 ft 459 kts 148°
2026-05-07 17:48 14.84426 76.56997 38924 ft 459 kts 148°
2026-05-07 17:48 14.76116 76.62427 38301 ft 463 kts 148°
2026-05-07 17:49 14.70642 76.66002 36774 ft 468 kts 148°
2026-05-07 17:49 14.65197 76.69556 35236 ft 471 kts 148°
2026-05-07 17:49 14.59664 76.73164 33611 ft 473 kts 148°
2026-05-07 17:49 14.54062 76.76815 31770 ft 475 kts 148°
2026-05-07 17:50 14.48455 76.80467 30041 ft 477 kts 148°
2026-05-07 17:50 14.42918 76.84072 28840 ft 462 kts 148°
2026-05-07 17:50 14.37552 76.87564 27680 ft 450 kts 148°
2026-05-07 17:50 14.32306 76.90975 26454 ft 441 kts 148°
2026-05-07 17:51 14.27170 76.94312 25317 ft 432 kts 148°
2026-05-07 17:51 14.22114 76.97596 24185 ft 426 kts 148°
2026-05-07 17:51 14.17116 77.00849 22922 ft 423 kts 148°
2026-05-07 17:51 14.12209 77.04047 21823 ft 413 kts 147°
2026-05-07 17:52 14.07387 77.07187 20711 ft 405 kts 147°
2026-05-07 17:52 14.02658 77.10264 19547 ft 401 kts 147°
2026-05-07 17:52 13.97974 77.13310 18411 ft 397 kts 147°
2026-05-07 17:52 13.93477 77.16233 17344 ft 389 kts 147°
2026-05-07 17:53 13.88876 77.19224 16231 ft 382 kts 147°
2026-05-07 17:53 13.84392 77.22136 15135 ft 377 kts 147°
2026-05-07 17:53 13.79978 77.25001 14032 ft 373 kts 147°
2026-05-07 17:53 13.75700 77.27778 13559 ft 350 kts 147°
2026-05-07 17:54 13.71739 77.30344 13306 ft 324 kts 147°
2026-05-07 17:54 13.68074 77.32720 13084 ft 299 kts 147°
2026-05-07 17:54 13.64695 77.34910 12870 ft 276 kts 146°
2026-05-07 17:54 13.61484 77.36993 12256 ft 271 kts 146°
2026-05-07 17:55 13.59332 77.38389 11816 ft 270 kts 146°
2026-05-07 17:55 13.55927 77.39952 11179 ft 268 kts 158°
2026-05-07 17:55 13.52462 77.41312 10552 ft 265 kts 158°
2026-05-07 17:55 13.47978 77.43085 9958 ft 256 kts 158°
2026-05-07 17:56 13.45765 77.43959 9679 ft 256 kts 158°
2026-05-07 17:56 13.42408 77.45256 9288 ft 255 kts 162°
2026-05-07 17:56 13.38952 77.45619 8913 ft 253 kts 178°
2026-05-07 17:56 13.35496 77.45718 8663 ft 238 kts 177°
2026-05-07 17:57 13.32297 77.45827 8229 ft 227 kts 176°
2026-05-07 17:57 13.29223 77.45469 7831 ft 220 kts 190°
2026-05-07 17:57 13.26207 77.44867 7498 ft 219 kts 189°
2026-05-07 17:57 13.23215 77.44321 7157 ft 217 kts 177°
2026-05-07 17:58 13.20878 77.45837 6787 ft 204 kts 108°
2026-05-07 17:58 13.20785 77.48675 6287 ft 198 kts 86°
2026-05-07 17:58 13.20854 77.51473 6004 ft 198 kts 89°
2026-05-07 17:58 13.20846 77.54292 5983 ft 197 kts 90°
2026-05-07 17:59 13.20831 77.56468 5987 ft 198 kts 90°
2026-05-07 18:01 13.20806 77.59154 5994 ft 198 kts 90°
2026-05-07 18:01 13.20778 77.61500 5583 ft 194 kts 90°
2026-05-07 18:01 13.20766 77.62939 4313 ft 204 kts 91°
2026-05-07 18:02 13.20737 77.65426 3637 ft 152 kts 89°
2026-05-07 18:02 13.20735 77.66444 3458 ft 136 kts 90°
2026-05-07 18:02 13.20727 77.67380 3240 ft 127 kts 90°
2026-05-07 18:03 13.20715 77.68238 3067 ft 117 kts 90°
2026-05-07 18:03 13.20711 77.69011 3002 ft 93 kts 89°
2026-05-07 18:03 13.20711 77.69480 2990 ft 49 kts 90°
2026-05-07 18:03 13.20706 77.69821 2983 ft 46 kts 91°
2026-05-07 18:04 13.20704 77.70140 2976 ft 44 kts 91°
2026-05-07 18:04 13.20704 77.70416 2969 ft 34 kts 89°
2026-05-07 18:04 13.20697 77.70660 2964 ft 35 kts 88°
2026-05-07 18:04 13.20672 77.70912 2946 ft 37 kts 109°
2026-05-07 18:05 13.20593 77.71069 2944 ft 14 kts 131°
2026-05-07 18:05 13.20524 77.71049 2946 ft 8 kts 269°
2026-05-07 18:05 13.20526 77.70992 2956 ft 9 kts 268°
2026-05-07 18:05 13.20526 77.70922 2957 ft 11 kts 273°
2026-05-07 18:06 13.20528 77.70840 2959 ft 12 kts 270°
2026-05-07 18:06 13.20528 77.70749 2958 ft 13 kts 272°
2026-05-07 18:06 13.20529 77.70648 2961 ft 15 kts 270°
2026-05-07 18:06 13.20169 77.70795 2949 ft 0 kts 180°